TimeEDT,TemperatureF,Dew PointF,Humidity,Sea Level PressureIn,VisibilityMPH,Wind Direction,Wind SpeedMPH,Gust SpeedMPH,PrecipitationIn,Events,Conditions,WindDirDegrees,DateUTC
12:06 AM,59.0,50.0,72,29.88,10.0,NE,6.9,-,N/A,,Mostly Cloudy,50,2012-10-28 04:06:00
12:27 AM,59.0,50.0,72,29.87,10.0,NE,5.8,-,N/A,,Overcast,50,2012-10-28 04:27:00
12:48 AM,59.0,50.0,72,29.87,10.0,NE,5.8,-,N/A,,Mostly Cloudy,50,2012-10-28 04:48:00
1:09 AM,59.0,50.0,72,29.86,10.0,NE,4.6,-,N/A,,Mostly Cloudy,40,2012-10-28 05:09:00
1:30 AM,59.0,50.0,72,29.86,10.0,NE,4.6,-,N/A,,Overcast,50,2012-10-28 05:30:00
1:51 AM,59.0,50.0,72,29.86,10.0,North,3.5,-,N/A,,Overcast,10,2012-10-28 05:51:00
2:12 AM,57.2,50.0,77,29.86,10.0,NNE,4.6,-,N/A,,Overcast,20,2012-10-28 06:12:00
2:36 AM,57.2,50.0,77,29.86,10.0,NNE,5.8,-,N/A,,Overcast,30,2012-10-28 06:36:00
3:18 AM,57.2,50.0,77,29.84,10.0,NNE,4.6,-,N/A,,Mostly Cloudy,30,2012-10-28 07:18:00
3:39 AM,57.2,50.0,77,29.85,10.0,NNE,5.8,-,N/A,,Scattered Clouds,20,2012-10-28 07:39:00
4:00 AM,57.2,48.2,72,29.85,10.0,Calm,Calm,-,N/A,,Mostly Cloudy,0,2012-10-28 08:00:00
4:21 AM,57.2,46.4,67,29.84,10.0,NNE,6.9,-,N/A,,Overcast,30,2012-10-28 08:21:00
4:42 AM,57.2,46.4,67,29.83,10.0,NE,6.9,-,N/A,,Overcast,40,2012-10-28 08:42:00
5:03 AM,57.2,44.6,63,29.83,10.0,NNE,6.9,-,N/A,,Overcast,30,2012-10-28 09:03:00
5:24 AM,57.2,44.6,63,29.83,10.0,NE,9.2,-,N/A,,Overcast,40,2012-10-28 09:24:00
5:45 AM,57.2,44.6,63,29.82,10.0,NNE,8.1,-,N/A,,Overcast,30,2012-10-28 09:45:00
6:09 AM,57.2,44.6,63,29.81,10.0,NE,10.4,16.1,N/A,,Overcast,50,2012-10-28 10:09:00
6:30 AM,57.2,46.4,67,29.80,10.0,NE,8.1,-,N/A,,Overcast,40,2012-10-28 10:30:00
6:51 AM,57.2,46.4,67,29.81,10.0,NNE,5.8,-,N/A,,Overcast,30,2012-10-28 10:51:00
7:12 AM,57.2,46.4,67,29.82,7.0,NE,6.9,-,N/A,,Overcast,40,2012-10-28 11:12:00
7:33 AM,57.2,46.4,67,29.82,7.0,NE,9.2,-,N/A,,Overcast,50,2012-10-28 11:33:00
7:54 AM,57.2,44.6,63,29.82,10.0,NNE,10.4,-,N/A,,Overcast,30,2012-10-28 11:54:00
8:15 AM,57.2,44.6,63,29.83,10.0,NNE,6.9,-,N/A,,Overcast,30,2012-10-28 12:15:00
8:36 AM,55.4,44.6,67,29.84,10.0,NE,9.2,18.4,N/A,,Overcast,50,2012-10-28 12:36:00
8:57 AM,55.4,44.6,67,29.83,10.0,ENE,10.4,18.4,N/A,,Overcast,60,2012-10-28 12:57:00
9:18 AM,55.4,42.8,63,29.83,10.0,NE,8.1,16.1,N/A,,Overcast,50,2012-10-28 13:18:00
9:39 AM,55.4,42.8,63,29.82,10.0,NNE,12.7,19.6,N/A,,Overcast,30,2012-10-28 13:39:00
12:09 PM,57.2,42.8,59,29.77,10.0,NNE,16.1,21.9,N/A,,Overcast,30,2012-10-28 16:09:00
12:30 PM,55.4,42.8,63,29.76,10.0,NNE,10.4,19.6,N/A,,Overcast,30,2012-10-28 16:30:00
12:51 PM,55.4,42.8,63,29.74,10.0,NNE,13.8,21.9,N/A,,Overcast,30,2012-10-28 16:51:00
1:12 PM,57.2,44.6,63,29.74,10.0,NNE,11.5,17.3,N/A,,Overcast,20,2012-10-28 17:12:00
1:33 PM,57.2,44.6,63,29.73,10.0,NNE,6.9,-,N/A,,Overcast,20,2012-10-28 17:33:00
1:54 PM,57.2,44.6,63,29.72,10.0,NNE,8.1,16.1,N/A,,Overcast,30,2012-10-28 17:54:00
2:18 PM,57.2,44.6,63,29.71,10.0,NNE,13.8,-,N/A,,Overcast,20,2012-10-28 18:18:00
2:39 PM,57.2,44.6,63,29.71,10.0,NNE,9.2,17.3,N/A,,Overcast,20,2012-10-28 18:39:00
3:00 PM,57.2,46.4,67,29.71,10.0,NNE,11.5,18.4,N/A,,Overcast,20,2012-10-28 19:00:00
4:03 PM,55.4,46.4,72,29.69,10.0,North,12.7,18.4,N/A,,Overcast,10,2012-10-28 20:03:00
4:24 PM,55.4,46.4,72,29.69,10.0,NNE,9.2,18.4,N/A,,Overcast,20,2012-10-28 20:24:00
4:45 PM,55.4,46.4,72,29.69,10.0,NNE,10.4,17.3,N/A,,Overcast,30,2012-10-28 20:45:00
5:06 PM,55.4,46.4,72,29.68,10.0,North,12.7,21.9,N/A,,Overcast,360,2012-10-28 21:06:00
5:27 PM,53.6,46.4,77,29.68,10.0,NNE,11.5,25.3,N/A,,Overcast,20,2012-10-28 21:27:00
5:48 PM,53.6,46.4,77,29.68,10.0,North,10.4,17.3,N/A,,Overcast,10,2012-10-28 21:48:00
6:09 PM,53.6,46.4,77,29.68,10.0,North,9.2,19.6,N/A,,Overcast,10,2012-10-28 22:09:00
6:33 PM,53.6,46.4,77,29.68,10.0,North,11.5,-,N/A,,Overcast,10,2012-10-28 22:33:00
6:54 PM,53.6,48.2,82,29.68,10.0,North,10.4,-,N/A,,Overcast,10,2012-10-28 22:54:00
7:36 PM,51.8,48.2,88,29.67,10.0,North,8.1,-,N/A,,Overcast,360,2012-10-28 23:36:00
7:57 PM,51.8,48.2,88,29.66,10.0,North,12.7,18.4,N/A,,Overcast,10,2012-10-28 23:57:00
8:18 PM,51.8,48.2,88,29.66,10.0,North,8.1,-,N/A,,Overcast,350,2012-10-29 00:18:00
9:00 PM,51.8,48.2,88,29.64,10.0,North,8.1,-,N/A,,Overcast,10,2012-10-29 01:00:00
9:21 PM,51.8,50.0,94,29.64,10.0,North,8.1,18.4,N/A,,Overcast,360,2012-10-29 01:21:00
9:42 PM,51.8,50.0,94,29.63,10.0,North,6.9,-,N/A,,Overcast,360,2012-10-29 01:42:00
10:03 PM,51.8,50.0,94,29.63,10.0,North,10.4,-,N/A,,Scattered Clouds,10,2012-10-29 02:03:00
10:48 PM,51.8,50.0,94,29.62,7.0,North,6.9,-,N/A,,Clear,10,2012-10-29 02:48:00
11:09 PM,51.8,50.0,94,29.61,10.0,NNE,6.9,-,N/A,,Scattered Clouds,20,2012-10-29 03:09:00
11:30 PM,51.8,50.0,94,29.60,10.0,NNE,6.9,-,N/A,,Scattered Clouds,20,2012-10-29 03:30:00
11:51 PM,51.8,50.0,94,29.59,10.0,NNE,6.9,-,N/A,,Mostly Cloudy,20,2012-10-29 03:51:00